Location: Staunton
(38.1490°N, 79.0720°W)
Time: 16:29:16
(UTC-04:00)

N. Korean satellite - Pass Details

Date: 22 September 2021
Orbit: 450 x 495 km, 97.3° (Epoch: 25 October)

Event Time Altitude Azimuth Distance (km) Brightness Sun altitude
Rises 05:40:25 0° 30° (NNE) 2,519 10.9 -17.1°
Reaches altitude 10° 05:43:00 10° 51° (NE) 1,646 10.3 -16.6°
Maximum altitude 05:45:25 17° 95° (E) 1,264 9.6 -16.2°
Drops below altitude 10° 05:47:51 10° 138° (SE) 1,655 9.6 -15.7°
Sets 05:50:27 0° 158° (SSE) 2,538 10.3 -15.2°
